Location: The Saddle
(36.8333°N, 80.3417°W)
Time: 07:30:12
(UTC-05:00)

Vanguard 2 Rocket - Pass Details

Date: 10 December 2023
Orbit: 555 x 3309 km, 32.9° (Epoch: 02 March)

Event Time Altitude Azimuth Distance (km) Brightness Sun altitude
Rises 18:18:01 0° 282° (WNW) 6,932 12.5 -14.2°
Reaches altitude 10° 18:22:29 10° 279° (W) 6,092 12.1 -15.1°
Maximum altitude 18:41:52 58° 207° (SSW) 3,569 10.0 -18.8°
Drops below altitude 10° 18:58:08 10° 134° (SE) 5,205 10.4 -22.0°
Sets 19:01:38 0° 130° (SE) 5,910 10.7 -22.6°
